Terug naar catalogus

DELTA 1 DEB

ActiefSSO
NORAD 2154·DEBRIS·🇺🇸 United States

Gelanceerd Feb 3, 1966 vanaf Cape Canaveral Space Force Station

Loading…

Volgende Passages (komende 24 uur)

TLE

VersSource: Space-Track

Epoch: Sep 14, 2026, 13:31 UTC

1 02154U 66008E   26257.56359697  .00000679  00000-0  11433-3 0  9991
2 02154  97.8819  10.9078 0046536  23.0637 337.2646 14.71964279192166

Volg DELTA 1 DEB in realtime met AllMySat

Download on the App Store